• In Deutschland
  • Länderverzeichnis
  • Für 7 Tage
  • Wassertemperatur
  • Satellitenkarten
  • Wetterkarte
  • Widgets
  • user-avatar
    Anmelden

    Stündliche Wetter San Miguel de Tucumán

    Heute, 21 November, Dienstag

    Zeit Temperatur Niederschläge Wind Luftdruck Luftfeuchtigkeit
    00:00 +25°C° 0,2 mm 2 m/S 716 mmHg 53%
    01:00 +25°C° 0,2 mm 2 m/S 716 mmHg 54%
    02:00 +24°C° 0,2 mm 2 m/S 716 mmHg 54%
    03:00 +22°C° 0,4 mm 3 m/S 717 mmHg 64%
    04:00 +21°C° 0,4 mm 3 m/S 718 mmHg 74%
    05:00 +19°C° 0,4 mm 4 m/S 719 mmHg 84%
    06:00 +19°C° 0,1 mm 4 m/S 720 mmHg 82%
    07:00 +20°C° 0,1 mm 3 m/S 721 mmHg 81%
    08:00 +20°C° 0,1 mm 3 m/S 721 mmHg 80%
    09:00 +21°C° 0 mm 3 m/S 722 mmHg 77%
    10:00 +22°C° 0 mm 3 m/S 722 mmHg 73%
    11:00 +24°C° 0 mm 3 m/S 722 mmHg 69%
    12:00 +25°C° 0 mm 3 m/S 721 mmHg 64%
    13:00 +26°C° 0 mm 3 m/S 721 mmHg 58%
    14:00 +28°C° 0 mm 3 m/S 720 mmHg 52%
    15:00 +27°C° 0,1 mm 2 m/S 720 mmHg 54%
    16:00 +27°C° 0,1 mm 2 m/S 720 mmHg 55%
    17:00 +27°C° 0,1 mm 2 m/S 719 mmHg 56%
    18:00 +25°C° 0 mm 2 m/S 720 mmHg 62%
    19:00 +24°C° 0 mm 1 m/S 720 mmHg 68%
    20:00 +22°C° 0 mm 1 m/S 721 mmHg 74%
    21:00 +22°C° 0 mm 1 m/S 722 mmHg 75%
    22:00 +22°C° 0 mm 1 m/S 722 mmHg 76%
    23:00 +21°C° 0 mm 1 m/S 722 mmHg 77%

    Morgen, 22 November, Mittwoch

    Zeit Temperatur Niederschläge Wind Luftdruck Luftfeuchtigkeit
    00:00 +21°C° 0 mm 1 m/S 722 mmHg 76%
    01:00 +21°C° 0 mm 1 m/S 721 mmHg 76%
    02:00 +20°C° 0 mm 1 m/S 721 mmHg 76%
    03:00 +20°C° 0 mm 1 m/S 721 mmHg 77%
    04:00 +20°C° 0 mm 1 m/S 721 mmHg 78%
    05:00 +19°C° 0 mm 1 m/S 721 mmHg 79%
    06:00 +20°C° 0 mm 2 m/S 722 mmHg 72%
    07:00 +21°C° 0 mm 2 m/S 722 mmHg 65%
    08:00 +24°C° 0 mm 3 m/S 722 mmHg 59%
    09:00 +26°C° 0 mm 3 m/S 722 mmHg 54%
    10:00 +28°C° 0 mm 3 m/S 722 mmHg 49%
    11:00 +29°C° 0 mm 3 m/S 722 mmHg 44%
    12:00 +30°C° 0 mm 3 m/S 721 mmHg 41%
    13:00 +32°C° 0 mm 4 m/S 720 mmHg 38%
    14:00 +33°C° 0 mm 4 m/S 719 mmHg 36%
    15:00 +33°C° 0 mm 4 m/S 719 mmHg 36%
    16:00 +31°C° 0 mm 3 m/S 718 mmHg 36%
    17:00 +31°C° 0 mm 3 m/S 717 mmHg 37%
    18:00 +29°C° 0 mm 3 m/S 717 mmHg 41%
    19:00 +27°C° 0 mm 2 m/S 718 mmHg 46%
    20:00 +25°C° 0 mm 2 m/S 718 mmHg 50%
    21:00 +24°C° 0 mm 2 m/S 718 mmHg 51%
    22:00 +24°C° 0 mm 2 m/S 719 mmHg 51%
    23:00 +24°C° 0 mm 2 m/S 719 mmHg 52%

    übermorgen, 23 November, Donnerstag

    Zeit Temperatur Niederschläge Wind Luftdruck Luftfeuchtigkeit
    00:00 +23°C° 0 mm 2 m/S 718 mmHg 53%
    01:00 +23°C° 0 mm 2 m/S 718 mmHg 54%
    02:00 +21°C° 0 mm 2 m/S 717 mmHg 55%
    03:00 +21°C° 0 mm 2 m/S 717 mmHg 55%
    04:00 +21°C° 0 mm 2 m/S 717 mmHg 55%
    05:00 +20°C° 0 mm 2 m/S 717 mmHg 54%
    06:00 +24°C° 0 mm 2 m/S 718 mmHg 50%
    07:00 +26°C° 0 mm 2 m/S 718 mmHg 45%
    08:00 +28°C° 0 mm 2 m/S 718 mmHg 41%
    09:00 +30°C° 0 mm 3 m/S 718 mmHg 37%
    10:00 +33°C° 0 mm 3 m/S 718 mmHg 33%
    11:00 +35°C° 0 mm 3 m/S 718 mmHg 29%
    12:00 +36°C° 0 mm 3 m/S 717 mmHg 28%
    13:00 +37°C° 0 mm 4 m/S 716 mmHg 26%
    14:00 +38°C° 0 mm 4 m/S 716 mmHg 24%
    15:00 +38°C° 0 mm 4 m/S 715 mmHg 25%
    16:00 +37°C° 0 mm 4 m/S 715 mmHg 26%
    17:00 +37°C° 0 mm 4 m/S 714 mmHg 26%
    18:00 +34°C° 0 mm 3 m/S 715 mmHg 31%
    19:00 +31°C° 0 mm 3 m/S 715 mmHg 36%
    20:00 +29°C° 0 mm 2 m/S 715 mmHg 41%
    21:00 +28°C° 0 mm 2 m/S 716 mmHg 42%
    22:00 +27°C° 0 mm 2 m/S 716 mmHg 44%
    23:00 +27°C° 0 mm 2 m/S 716 mmHg 45%

    24 November, Freitag

    Zeit Temperatur Niederschläge Wind Luftdruck Luftfeuchtigkeit
    00:00 +26°C° 0 mm 2 m/S 716 mmHg 46%
    01:00 +26°C° 0 mm 2 m/S 716 mmHg 47%
    02:00 +26°C° 0 mm 2 m/S 715 mmHg 48%
    03:00 +25°C° 0 mm 2 m/S 715 mmHg 48%
    04:00 +25°C° 0 mm 2 m/S 715 mmHg 49%
    05:00 +24°C° 0 mm 2 m/S 715 mmHg 49%
    06:00 +26°C° 0 mm 2 m/S 716 mmHg 46%
    07:00 +28°C° 0 mm 2 m/S 717 mmHg 42%
    08:00 +30°C° 0 mm 3 m/S 717 mmHg 39%
    09:00 +33°C° 0 mm 3 m/S 717 mmHg 36%
    10:00 +35°C° 0 mm 3 m/S 717 mmHg 33%
    11:00 +37°C° 0 mm 3 m/S 717 mmHg 30%
    12:00 +38°C° 0 mm 4 m/S 716 mmHg 29%
    13:00 +40°C° 0 mm 4 m/S 715 mmHg 27%
    14:00 +41°C° 0 mm 4 m/S 714 mmHg 26%
    15:00 +40°C° 0 mm 4 m/S 714 mmHg 27%
    16:00 +40°C° 0 mm 4 m/S 713 mmHg 27%
    17:00 +40°C° 0 mm 4 m/S 713 mmHg 28%
    18:00 +36°C° 0,1 mm 3 m/S 713 mmHg 35%
    19:00 +34°C° 0,1 mm 3 m/S 714 mmHg 41%
    20:00 +30°C° 0,1 mm 2 m/S 714 mmHg 48%
    21:00 +29°C° 0,4 mm 2 m/S 714 mmHg 53%
    22:00 +28°C° 0,4 mm 2 m/S 715 mmHg 57%
    23:00 +27°C° 0,4 mm 2 m/S 715 mmHg 62%

    25 November, Samstag

    Zeit Temperatur Niederschläge Wind Luftdruck Luftfeuchtigkeit
    00:00 +27°C° 0 mm 2 m/S 714 mmHg 62%
    01:00 +27°C° 0 mm 2 m/S 714 mmHg 63%
    02:00 +26°C° 0 mm 2 m/S 714 mmHg 63%
    03:00 +26°C° 0 mm 2 m/S 714 mmHg 64%
    04:00 +25°C° 0 mm 2 m/S 714 mmHg 66%
    05:00 +25°C° 0 mm 2 m/S 714 mmHg 67%
    06:00 +26°C° 0,1 mm 2 m/S 715 mmHg 63%
    07:00 +27°C° 0,1 mm 3 m/S 716 mmHg 60%
    08:00 +27°C° 0,1 mm 4 m/S 717 mmHg 57%
    09:00 +28°C° 0 mm 4 m/S 717 mmHg 54%
    10:00 +29°C° 0 mm 4 m/S 717 mmHg 52%
    11:00 +29°C° 0 mm 4 m/S 718 mmHg 49%
    12:00 +30°C° 0 mm 4 m/S 717 mmHg 48%
    13:00 +32°C° 0 mm 4 m/S 717 mmHg 47%
    14:00 +32°C° 0 mm 4 m/S 717 mmHg 46%
    15:00 +32°C° 0 mm 4 m/S 717 mmHg 48%
    16:00 +30°C° 0 mm 3 m/S 716 mmHg 50%
    17:00 +30°C° 0 mm 3 m/S 716 mmHg 51%
    18:00 +28°C° 0 mm 2 m/S 717 mmHg 57%
    19:00 +26°C° 0 mm 2 m/S 718 mmHg 63%
    20:00 +25°C° 0 mm 1 m/S 718 mmHg 69%
    21:00 +24°C° 0 mm 1 m/S 719 mmHg 72%
    22:00 +23°C° 0 mm 1 m/S 719 mmHg 75%
    23:00 +21°C° 0 mm 0 m/S 719 mmHg 78%

    26 November, Sonntag

    Zeit Temperatur Niederschläge Wind Luftdruck Luftfeuchtigkeit
    00:00 +20°C° 0 mm 0 m/S 718 mmHg 79%
    01:00 +22°C° 0 mm 1 m/S 718 mmHg 80%
    02:00 +22°C° 0 mm 1 m/S 717 mmHg 80%
    03:00 +22°C° 0 mm 1 m/S 717 mmHg 81%
    04:00 +21°C° 0 mm 1 m/S 717 mmHg 81%
    05:00 +21°C° 0 mm 1 m/S 717 mmHg 81%
    06:00 +23°C° 0 mm 1 m/S 717 mmHg 74%
    07:00 +25°C° 0 mm 1 m/S 717 mmHg 67%
    08:00 +27°C° 0 mm 1 m/S 718 mmHg 59%
    09:00 +29°C° 0 mm 2 m/S 717 mmHg 53%
    10:00 +31°C° 0 mm 2 m/S 716 mmHg 47%
    11:00 +34°C° 0 mm 2 m/S 716 mmHg 40%
    12:00 +34°C° 0 mm 2 m/S 715 mmHg 37%
    13:00 +35°C° 0 mm 3 m/S 714 mmHg 34%
    14:00 +36°C° 0 mm 3 m/S 713 mmHg 32%
    15:00 +36°C° 0 mm 3 m/S 712 mmHg 32%
    16:00 +35°C° 0 mm 3 m/S 711 mmHg 32%
    17:00 +35°C° 0 mm 3 m/S 711 mmHg 32%
    18:00 +32°C° 0 mm 2 m/S 711 mmHg 36%
    19:00 +29°C° 0 mm 2 m/S 711 mmHg 40%
    20:00 +27°C° 0 mm 1 m/S 712 mmHg 43%
    21:00 +27°C° 0 mm 1 m/S 712 mmHg 44%
    22:00 +26°C° 0 mm 1 m/S 712 mmHg 45%
    23:00 +26°C° 0 mm 2 m/S 712 mmHg 46%
    Mehr zeigen